Weather Roundup
Issued by NWS Corpus Christi, TX

Home | Current Version | Previous Version | Text Only | Print | Product List | Glossary On
Versions: 1 2 3 4 5 6 7 8 9 10 11 12 13 14 15 16 17 18 19 20 21 22 23 24 25 26 27 28 29 30 31 32 33 34 35 36 37 38 39 40 41 42 43 44 45 46 47 48 49 50
000
ASUS44 KCRP 302310
HRRCRP

SOUTH TEXAS REGIONAL WEATHER ROUNDUP
NATIONAL WEATHER SERVICE CORPUS CHRISTI TX
600 PM CDT THU OCT 30 2014


TXZ229>244-310000-
...CORPUS CHRISTI AREA OBSERVATIONS...

CITY           SKY/WX    TMP DP  RH WIND       PRES   REMARKS
CORPUS CHRISTI MOCLDY    80  70  71 E13       30.02R
NAS CORPUS CHR MOCLDY    79  72  79 E12       30.02S
ROCKPORT       CLEAR     78  69  73 E9        30.02S
KINGSVILLE NAS PTCLDY    81  73  76 SE9       30.01R
ALICE          CLEAR     83  66  56 SE9       30.00S
FALFURRIAS     CLOUDY    82  67  59 E10       30.00R
$$

...VICTORIA AREA OBSERVATIONS...

CITY           SKY/WX    TMP DP  RH WIND       PRES   REMARKS
VICTORIA       CLEAR     83  64  52 E5        30.02F
BEEVILLE       FAIR      82  67  61 E14       30.02R
PLEASANTON     CLEAR     85  59  41 NE3       30.03S
SAN ANTONIO    PTCLDY    83  60  45 CALM      30.03F
$$

...LAREDO AREA OBSERVATIONS...

CITY           SKY/WX    TMP DP  RH WIND       PRES   REMARKS
LAREDO         SUNNY     88  59  37 CALM      30.02S
COTULLA        CLOUDY    89  58  34 E7        30.00S
DEL RIO        SUNNY     85  62  46 SE6       30.01S
MCALLEN        MOSUNNY   86  63  45 S3        29.99S
HEBBRONVILLE   SUNNY     85  59  41 SE5       30.02S
$$

...OTHER TEXAS OBSERVATIONS...

CITY           SKY/WX    TMP DP  RH WIND       PRES   REMARKS
BROWNSVILLE    CLEAR     82  69  64 E10       30.01R
HOUSTON        PTCLDY    76  53  44 N7        30.05S
COL. STATION   CLEAR     76  51  41 NE7       30.06S
AUSTIN         PTCLDY    80  60  50 N5        30.04S
WACO           CLEAR     73  53  49 E6        30.06F
FORT WORTH     MOCLDY    76  54  46 SE6       30.06F
WICHITA FALLS  CLEAR     77  40  26 N18       30.10R
LUBBOCK        MOSUNNY   73  40  30 NE16G23   30.19R
EL PASO        MOSUNNY   81  35  19 N8        30.15S
$$

...MARINE OBSERVATIONS...

STATION/POSITION TIME  SKY/WX   TEMP    WIND        PRES    VSBY  WAVE   SWELL
                                AIR SEA DIR/SP/G                  HT/PER HT/PER
                 (UTC)          (F)     (DEG/KT/KT) (MB)    (MI)  (FT/S) (FT/S)
PORT ARANSAS     2300            77 80   70/ 12/ 13 1017.8R
BUOY 90 E PORT A 2300            75 79   30/ 10/ 12 1017.3F         2/ 5   2/ 5
BUOY 45 SE BAFFI 2300            79 81   60/ 10/ 12 1016.2R         1/ 7   2/ 7
BUOY 200 E PT IS 2300            78 81   30/ 12/ 16 1015.5S         2/ 6   2/ 6
BUOY 15 E GALVES 2300            71 77   70/ 10/ 12 1017.3S         2/ 5   2/ 5
$$



USA.gov is the U.S. government's official web portal to all federal, state and local government web resources and services.